{"data":{"norad_id":82484,"epoch":"2026-09-15T23:32:39.640704Z","epoch_age_seconds":408758,"freshness":"STALE","line1":"1 82484U          26258.98101436  .00000040  00000+0  11625-3 0  9992","line2":"2 82484  99.3428 271.1756 0043881 210.2697 149.5906 13.55906642628206","mean_motion":13.55906642,"eccentricity":0.0043881,"inclination_deg":99.3428,"raan_deg":271.1756,"arg_perigee_deg":210.2697,"mean_anomaly_deg":149.5906,"bstar":0.00011625,"rev_number":62820,"period_min":106.2020020697,"perigee_km":1018.0076236827,"apogee_km":1083.2037552741,"semimajor_km":7428.7426894784,"source":"CELESTRAK","updated_at":"2026-09-20T09:00:32.435300Z"}}